Weather History for Orlando International, FL

Change the Weather History Date:

Thursday, January 17, 2013

  Actual Average Record
Temperature  
Mean Temperature 67 °F 60 °F  
Max Temperature 81 °F 71 °F 87 °F (1943)
Min Temperature 53 °F 49 °F 28 °F (1959)
Degree Days  
Heating Degree Days 0 6  
Month to date heating degree days 7 109  
Since 1 July heating degree days 172 300  
Cooling Degree Days 2 1  
Month to date cooling degree days 74 20  
Year to date cooling degree days 74 20  
Growing Degree Days 18 (Base 50)    
Moisture  
Dew Point 57 °F    
Average Humidity 79    
Maximum Humidity 100    
Minimum Humidity 58    
Precipitation  
Precipitation T in 0.07 in 2.03 in (2011)
Month to date precipitation 0.04 1.29  
Year to date precipitation 0.04 1.29  
Sea Level Pressure  
Sea Level Pressure 30.05 in    
Wind  
Wind Speed 12 mph (WSW)    
Max Wind Speed 25 mph    
Max Gust Speed 33 mph    
Visibility 10 miles    
Events Fog    
T = Trace of Precipitation, MM = Missing Value Source: NWS Daily Summary

Daily Weather History Graph

Daily Weather History Graph

Search for Another Location

Airport:

Trip Planner

Search our weather history database for the weather conditions in past years. The results will help you decide how hot, cold, wet, or windy it might be!

Date:

Astronomy

Jan. 17, 2013 Rise Set
Actual Time 7:18 AM EST 5:52 PM EST
Civil Twilight 6:53 AM EST 6:18 PM EST
Nautical Twilight 6:24 AM EST 6:46 PM EST
Astronomical Twilight 5:55 AM EST 7:15 PM EST
Moon 11:00 AM EST (1/17) No Moon Set
Length of Visible Light 11h 25m
Length of Day
10h 34m
Waxing Crescent, 37% of the Moon is Illuminated
Jan 17
Waxing Crescent
Jan 18
First Quarter
Jan 26
Full
Feb 3
Last Quarter
Feb 10
New

Hourly Weather History & Observations

Time (EST) Temp. Heat Index Dew Point Humidity Pressure Visibility Wind Dir Wind Speed Gust Speed Precip Events Conditions
12:53 AM 66.0 °F - 64.9 °F 96% 30.04 in 10.0 mi Calm Calm - N/A   Partly Cloudy
1:53 AM 64.0 °F - 64.0 °F 100% 30.04 in 7.0 mi Calm Calm - N/A Fog Patches of Fog
2:53 AM 62.1 °F - 62.1 °F 100% 30.04 in 10.0 mi Calm Calm - N/A   Scattered Clouds
3:53 AM 64.0 °F - 62.1 °F 93% 30.03 in 10.0 mi Calm Calm - N/A   Scattered Clouds
4:53 AM 60.1 °F - 59.0 °F 96% 30.03 in 10.0 mi SSE 5.8 mph - N/A   Scattered Clouds
5:53 AM 61.0 °F - 60.1 °F 97% 30.03 in 10.0 mi SSE 3.5 mph - N/A   Mostly Cloudy
6:53 AM 61.0 °F - 61.0 °F 100% 30.04 in 10.0 mi SSE 3.5 mph - N/A   Partly Cloudy
7:53 AM 63.0 °F - 63.0 °F 100% 30.05 in 10.0 mi South 5.8 mph - N/A Fog Shallow Fog
8:53 AM 69.1 °F - 66.0 °F 90% 30.05 in 10.0 mi South 6.9 mph - N/A   Scattered Clouds
9:19 AM 71.6 °F - 66.2 °F 83% 30.06 in 10.0 mi South 9.2 mph - N/A   Scattered Clouds
9:53 AM 73.9 °F - 68.0 °F 82% 30.06 in 10.0 mi South 13.8 mph - N/A   Mostly Cloudy
10:53 AM 77.0 °F - 66.0 °F 69% 30.03 in 10.0 mi SSW 15.0 mph - N/A   Scattered Clouds
11:53 AM 80.1 °F 81.9 °F 64.9 °F 60% 30.00 in 10.0 mi South 18.4 mph - N/A   Scattered Clouds
12:53 PM 78.1 °F - 63.0 °F 60% 29.98 in 10.0 mi WSW 18.4 mph 28.8 mph 0.00 in   Mostly Cloudy
1:53 PM 72.0 °F - 63.0 °F 73% 29.97 in 10.0 mi West 20.7 mph 26.5 mph N/A   Mostly Cloudy
2:10 PM 71.6 °F - 62.6 °F 73% 29.98 in 10.0 mi West 18.4 mph 26.5 mph N/A   Overcast
2:40 PM 66.2 °F - 60.8 °F 83% 30.00 in 10.0 mi West 19.6 mph 26.5 mph 0.00 in   Drizzle
2:53 PM 66.0 °F - 59.0 °F 78% 30.00 in 10.0 mi West 18.4 mph 27.6 mph 0.00 in   Light Drizzle
3:11 PM 62.6 °F - 57.2 °F 82% 30.01 in 9.0 mi West 20.7 mph 29.9 mph 0.00 in   Light Drizzle
3:53 PM 62.1 °F - 55.0 °F 78% 30.03 in 10.0 mi West 16.1 mph 28.8 mph 0.00 in   Overcast
4:53 PM 61.0 °F - 52.0 °F 72% 30.05 in 10.0 mi West 19.6 mph 31.1 mph N/A   Overcast
5:29 PM 60.8 °F - 50.0 °F 68% 30.06 in 10.0 mi West 15.0 mph 23.0 mph N/A   Mostly Cloudy
5:53 PM 60.1 °F - 50.0 °F 69% 30.06 in 10.0 mi West 13.8 mph 21.9 mph N/A   Overcast
6:53 PM 60.1 °F - 48.0 °F 64% 30.08 in 10.0 mi West 17.3 mph 24.2 mph N/A   Overcast
7:53 PM 57.9 °F - 46.0 °F 65% 30.09 in 10.0 mi West 17.3 mph 27.6 mph N/A   Scattered Clouds
8:53 PM 55.9 °F - 46.0 °F 69% 30.11 in 10.0 mi West 12.7 mph 20.7 mph N/A   Scattered Clouds
9:15 PM 57.2 °F - 46.4 °F 67% 30.11 in 10.0 mi West 17.3 mph 21.9 mph N/A   Mostly Cloudy
9:31 PM 57.2 °F - 46.4 °F 67% 30.11 in 10.0 mi WNW 18.4 mph 25.3 mph N/A   Mostly Cloudy
9:53 PM 55.9 °F - 45.0 °F 67% 30.11 in 10.0 mi WNW 20.7 mph - N/A   Mostly Cloudy
10:53 PM 55.0 °F - 45.0 °F 69% 30.11 in 10.0 mi WNW 17.3 mph - N/A   Scattered Clouds
11:53 PM 53.1 °F - 43.0 °F 69% 30.12 in 10.0 mi West 13.8 mph 27.6 mph N/A   Scattered Clouds